Time,TemperatureF,DewpointF,PressureIn,WindDirection,WindDirectionDegrees,WindSpeedMPH,WindSpeedGustMPH,Humidity,HourlyPrecipIn,Conditions,Clouds,dailyrainin,SoftwareType,DateUTC
2013-04-30 00:01:00,53.2,51.5,29.93,North,355,0.0,2.0,94,0.00,,,0.00,VWS V14.01,2013-04-30 04:01:00,
2013-04-30 00:02:00,53.3,51.6,29.93,North,355,0.0,2.0,94,0.00,,,0.00,VWS V14.01,2013-04-30 04:02:00,
2013-04-30 00:03:00,53.3,51.6,29.93,North,355,0.0,2.0,94,0.00,,,0.00,VWS V14.01,2013-04-30 04:03:00,
2013-04-30 00:05:00,53.3,51.6,29.93,North,355,0.0,2.0,94,0.00,,,0.00,VWS V14.01,2013-04-30 04:05:00,
2013-04-30 00:10:00,53.3,51.6,29.93,North,355,0.0,2.0,94,0.00,,,0.00,VWS V14.01,2013-04-30 04:10:00,
2013-04-30 00:15:00,53.3,51.6,29.92,North,355,0.0,2.0,94,0.00,,,0.00,VWS V14.01,2013-04-30 04:15:00,
2013-04-30 00:20:00,53.3,51.6,29.92,North,355,0.0,2.0,94,0.00,,,0.00,VWS V14.01,2013-04-30 04:20:00,
2013-04-30 00:25:00,53.5,51.8,29.92,North,355,0.0,2.0,94,0.00,,,0.00,VWS V14.01,2013-04-30 04:25:00,
2013-04-30 00:30:00,53.6,51.9,29.91,North,355,0.0,2.0,94,0.00,,,0.00,VWS V14.01,2013-04-30 04:30:00,
2013-04-30 00:35:00,53.6,51.9,29.91,North,355,0.0,2.0,94,0.00,,,0.00,VWS V14.01,2013-04-30 04:35:00,
2013-04-30 00:40:00,53.8,52.1,29.91,North,355,0.0,2.0,94,0.00,,,0.00,VWS V14.01,2013-04-30 04:40:00,
2013-04-30 00:45:00,53.8,51.8,29.91,North,355,0.0,2.0,93,0.00,,,0.00,VWS V14.01,2013-04-30 04:45:00,
2013-04-30 00:50:00,53.9,52.2,29.91,North,355,0.0,2.0,94,0.00,,,0.00,VWS V14.01,2013-04-30 04:50:00,
2013-04-30 00:55:00,53.9,52.2,29.91,North,355,0.0,2.0,94,0.00,,,0.00,VWS V14.01,2013-04-30 04:55:00,
2013-04-30 01:00:00,54.1,52.1,29.91,North,355,0.0,2.0,93,0.00,,,0.00,VWS V14.01,2013-04-30 05:00:00,
2013-04-30 01:05:00,53.9,51.9,29.91,North,355,0.0,2.0,93,0.00,,,0.00,VWS V14.01,2013-04-30 05:05:00,
2013-04-30 01:10:00,53.8,51.8,29.91,North,355,0.0,2.0,93,0.00,,,0.00,VWS V14.01,2013-04-30 05:10:00,
2013-04-30 01:15:00,53.8,51.8,29.91,North,355,0.0,2.0,93,0.00,,,0.00,VWS V14.01,2013-04-30 05:15:00,
2013-04-30 01:20:00,53.6,51.6,29.91,North,355,0.0,2.0,93,0.00,,,0.00,VWS V14.01,2013-04-30 05:20:00,
2013-04-30 01:25:00,53.6,51.6,29.91,North,355,0.0,2.0,93,0.00,,,0.00,VWS V14.01,2013-04-30 05:25:00,
2013-04-30 01:30:00,53.6,51.6,29.91,North,355,0.0,2.0,93,0.00,,,0.00,VWS V14.01,2013-04-30 05:30:00,
2013-04-30 01:35:00,53.5,51.5,29.91,North,355,0.0,2.0,93,0.00,,,0.00,VWS V14.01,2013-04-30 05:35:00,
2013-04-30 01:42:00,53.5,51.5,29.91,North,355,0.0,2.0,93,0.00,,,0.00,VWS V14.01,2013-04-30 05:42:00,
2013-04-30 01:47:00,53.5,51.5,29.91,North,355,0.0,2.0,93,0.00,,,0.00,VWS V14.01,2013-04-30 05:47:00,
2013-04-30 01:52:00,53.5,51.5,29.91,North,355,0.0,2.0,93,0.00,,,0.00,VWS V14.01,2013-04-30 05:52:00,
2013-04-30 01:57:00,53.3,51.3,29.91,North,355,0.0,2.0,93,0.00,,,0.00,VWS V14.01,2013-04-30 05:57:00,
2013-04-30 02:02:00,53.2,51.2,29.90,North,355,0.0,2.0,93,0.00,,,0.00,VWS V14.01,2013-04-30 06:02:00,
2013-04-30 02:08:00,53.2,51.2,29.90,North,355,0.0,2.0,93,0.00,,,0.00,VWS V14.01,2013-04-30 06:08:00,
2013-04-30 02:13:00,53.1,51.1,29.90,North,355,0.0,2.0,93,0.00,,,0.00,VWS V14.01,2013-04-30 06:13:00,
2013-04-30 02:18:00,52.9,50.9,29.90,North,355,0.0,2.0,93,0.00,,,0.00,VWS V14.01,2013-04-30 06:18:00,
2013-04-30 02:23:00,52.8,50.8,29.90,North,355,0.0,2.0,93,0.00,,,0.00,VWS V14.01,2013-04-30 06:23:00,
2013-04-30 02:28:00,52.6,50.6,29.90,North,355,0.0,2.0,93,0.00,,,0.00,VWS V14.01,2013-04-30 06:28:00,
2013-04-30 02:33:00,52.5,50.5,29.90,North,355,0.0,2.0,93,0.00,,,0.00,VWS V14.01,2013-04-30 06:33:00,
2013-04-30 02:38:00,52.3,50.6,29.90,North,355,0.0,2.0,94,0.00,,,0.00,VWS V14.01,2013-04-30 06:38:00,
2013-04-30 02:43:00,52.2,50.5,29.90,North,355,0.0,2.0,94,0.00,,,0.00,VWS V14.01,2013-04-30 06:43:00,
2013-04-30 02:48:00,51.9,50.2,29.89,North,355,0.0,2.0,94,0.00,,,0.00,VWS V14.01,2013-04-30 06:48:00,
2013-04-30 02:53:00,51.9,50.2,29.89,North,355,0.0,2.0,94,0.00,,,0.00,VWS V14.01,2013-04-30 06:53:00,
2013-04-30 02:58:00,51.7,50.0,29.89,North,355,0.0,2.0,94,0.00,,,0.00,VWS V14.01,2013-04-30 06:58:00,
2013-04-30 03:03:00,51.6,49.9,29.89,North,355,0.0,2.0,94,0.00,,,0.00,VWS V14.01,2013-04-30 07:03:00,
2013-04-30 03:08:00,51.4,49.7,29.89,North,355,0.0,2.0,94,0.00,,,0.00,VWS V14.01,2013-04-30 07:08:00,
2013-04-30 03:13:00,51.3,49.6,29.89,North,355,0.0,2.0,94,0.00,,,0.00,VWS V14.01,2013-04-30 07:13:00,
2013-04-30 03:18:00,51.1,49.4,29.89,North,355,0.0,2.0,94,0.00,,,0.00,VWS V14.01,2013-04-30 07:18:00,
2013-04-30 03:23:00,51.1,49.4,29.89,North,355,0.0,2.0,94,0.00,,,0.00,VWS V14.01,2013-04-30 07:23:00,
2013-04-30 03:28:00,51.0,49.3,29.89,North,355,0.0,2.0,94,0.00,,,0.00,VWS V14.01,2013-04-30 07:28:00,
2013-04-30 03:34:00,51.0,49.3,29.89,North,355,0.0,2.0,94,0.00,,,0.00,VWS V14.01,2013-04-30 07:34:00,
2013-04-30 03:39:00,50.8,49.1,29.89,North,355,0.0,2.0,94,0.00,,,0.00,VWS V14.01,2013-04-30 07:39:00,
2013-04-30 03:44:00,50.8,49.1,29.89,North,355,0.0,2.0,94,0.00,,,0.00,VWS V14.01,2013-04-30 07:44:00,
2013-04-30 03:49:00,50.7,49.0,29.89,North,355,0.0,2.0,94,0.00,,,0.00,VWS V14.01,2013-04-30 07:49:00,
2013-04-30 03:54:00,50.5,49.1,29.89,North,355,0.0,2.0,95,0.00,,,0.00,VWS V14.01,2013-04-30 07:54:00,
2013-04-30 03:59:00,50.5,49.1,29.89,North,355,0.0,2.0,95,0.00,,,0.00,VWS V14.01,2013-04-30 07:59:00,
2013-04-30 04:04:00,50.4,49.0,29.90,North,355,0.0,2.0,95,0.00,,,0.00,VWS V14.01,2013-04-30 08:04:00,
2013-04-30 04:09:00,50.4,49.0,29.90,North,355,0.0,2.0,95,0.00,,,0.00,VWS V14.01,2013-04-30 08:09:00,
2013-04-30 04:14:00,50.2,48.8,29.90,North,355,0.0,2.0,95,0.00,,,0.00,VWS V14.01,2013-04-30 08:14:00,
2013-04-30 04:19:00,50.2,48.8,29.90,North,355,0.0,2.0,95,0.00,,,0.00,VWS V14.01,2013-04-30 08:19:00,
2013-04-30 04:24:00,50.1,48.7,29.90,North,355,0.0,2.0,95,0.00,,,0.00,VWS V14.01,2013-04-30 08:24:00,
2013-04-30 04:29:00,50.1,48.7,29.91,North,355,0.0,2.0,95,0.00,,,0.00,VWS V14.01,2013-04-30 08:29:00,
2013-04-30 04:34:00,50.1,48.7,29.91,North,355,0.0,2.0,95,0.00,,,0.00,VWS V14.01,2013-04-30 08:34:00,
2013-04-30 04:39:00,49.9,48.5,29.91,North,355,0.0,2.0,95,0.00,,,0.00,VWS V14.01,2013-04-30 08:39:00,
2013-04-30 04:44:00,49.9,48.5,29.92,North,355,0.0,2.0,95,0.00,,,0.00,VWS V14.01,2013-04-30 08:44:00,
2013-04-30 04:49:00,49.8,48.4,29.92,North,355,0.0,2.0,95,0.00,,,0.00,VWS V14.01,2013-04-30 08:49:00,
2013-04-30 04:54:00,49.8,48.4,29.92,North,355,0.0,2.0,95,0.00,,,0.00,VWS V14.01,2013-04-30 08:54:00,
2013-04-30 04:59:00,49.8,48.4,29.92,North,355,0.0,2.0,95,0.00,,,0.00,VWS V14.01,2013-04-30 08:59:00,
2013-04-30 05:04:00,49.8,48.4,29.92,North,355,0.0,2.0,95,0.00,,,0.00,VWS V14.01,2013-04-30 09:04:00,
2013-04-30 05:09:00,49.8,48.4,29.92,North,355,0.0,2.0,95,0.00,,,0.00,VWS V14.01,2013-04-30 09:09:00,
2013-04-30 05:14:00,49.8,48.4,29.92,North,355,0.0,2.0,95,0.00,,,0.00,VWS V14.01,2013-04-30 09:14:00,
2013-04-30 05:19:00,49.8,48.4,29.92,North,355,0.0,2.0,95,0.00,,,0.00,VWS V14.01,2013-04-30 09:19:00,
2013-04-30 05:25:00,49.8,48.4,29.92,North,355,0.0,2.0,95,0.00,,,0.00,VWS V14.01,2013-04-30 09:25:00,
2013-04-30 05:30:00,49.6,48.2,29.92,North,355,0.0,2.0,95,0.00,,,0.00,VWS V14.01,2013-04-30 09:30:00,
2013-04-30 05:35:00,49.6,48.2,29.92,North,355,0.0,2.0,95,0.00,,,0.00,VWS V14.01,2013-04-30 09:35:00,
2013-04-30 05:40:00,49.6,48.2,29.92,North,355,0.0,2.0,95,0.00,,,0.00,VWS V14.01,2013-04-30 09:40:00,
2013-04-30 05:45:00,49.6,48.2,29.93,North,355,0.0,2.0,95,0.00,,,0.00,VWS V14.01,2013-04-30 09:45:00,
2013-04-30 05:50:00,49.5,48.1,29.93,North,355,0.0,2.0,95,0.00,,,0.00,VWS V14.01,2013-04-30 09:50:00,
2013-04-30 05:55:00,49.5,48.1,29.93,North,355,0.0,2.0,95,0.00,,,0.00,VWS V14.01,2013-04-30 09:55:00,
2013-04-30 06:00:00,49.5,48.1,29.94,North,355,0.0,2.0,95,0.00,,,0.00,VWS V14.01,2013-04-30 10:00:00,
2013-04-30 06:05:00,49.5,48.1,29.94,North,355,0.0,2.0,95,0.00,,,0.00,VWS V14.01,2013-04-30 10:05:00,
2013-04-30 06:10:00,49.4,48.0,29.94,North,355,0.0,2.0,95,0.00,,,0.00,VWS V14.01,2013-04-30 10:10:00,
2013-04-30 06:15:00,49.4,48.0,29.95,North,355,0.0,2.0,95,0.00,,,0.00,VWS V14.01,2013-04-30 10:15:00,
2013-04-30 06:20:00,49.4,48.0,29.95,North,355,0.0,2.0,95,0.00,,,0.00,VWS V14.01,2013-04-30 10:20:00,
2013-04-30 06:25:00,49.4,48.0,29.95,North,355,0.0,2.0,95,0.00,,,0.00,VWS V14.01,2013-04-30 10:25:00,
2013-04-30 06:30:00,49.2,47.8,29.95,North,355,0.0,2.0,95,0.00,,,0.00,VWS V14.01,2013-04-30 10:30:00,
2013-04-30 06:35:00,49.2,47.8,29.95,North,355,0.0,2.0,95,0.00,,,0.00,VWS V14.01,2013-04-30 10:35:00,
2013-04-30 06:40:00,49.2,47.8,29.95,North,355,0.0,2.0,95,0.00,,,0.00,VWS V14.01,2013-04-30 10:40:00,
2013-04-30 06:45:00,49.2,47.8,29.96,North,355,0.0,2.0,95,0.00,,,0.00,VWS V14.01,2013-04-30 10:45:00,
2013-04-30 06:50:00,49.1,48.0,29.96,North,355,0.0,2.0,96,0.00,,,0.00,VWS V14.01,2013-04-30 10:50:00,
2013-04-30 06:55:00,49.1,48.0,29.96,North,355,0.0,2.0,96,0.00,,,0.00,VWS V14.01,2013-04-30 10:55:00,
2013-04-30 07:00:00,49.1,48.0,29.96,North,355,0.0,2.0,96,0.00,,,0.00,VWS V14.01,2013-04-30 11:00:00,
2013-04-30 07:05:00,49.1,48.0,29.96,North,355,0.0,2.0,96,0.00,,,0.00,VWS V14.01,2013-04-30 11:05:00,
2013-04-30 07:10:00,49.1,48.0,29.96,North,355,0.0,2.0,96,0.00,,,0.00,VWS V14.01,2013-04-30 11:10:00,
2013-04-30 07:16:00,49.1,48.0,29.97,North,355,0.0,2.0,96,0.00,,,0.00,VWS V14.01,2013-04-30 11:16:00,
2013-04-30 07:21:00,49.2,48.1,29.97,North,355,0.0,2.0,96,0.00,,,0.00,VWS V14.01,2013-04-30 11:21:00,
2013-04-30 07:26:00,49.4,48.3,29.97,North,355,0.0,2.0,96,0.00,,,0.00,VWS V14.01,2013-04-30 11:26:00,
2013-04-30 07:31:00,49.5,48.4,29.98,North,355,0.0,2.0,96,0.00,,,0.00,VWS V14.01,2013-04-30 11:31:00,
2013-04-30 07:36:00,49.6,48.5,29.98,North,355,0.0,2.0,96,0.00,,,0.00,VWS V14.01,2013-04-30 11:36:00,
2013-04-30 07:41:00,49.8,48.7,29.98,North,355,0.0,2.0,96,0.00,,,0.00,VWS V14.01,2013-04-30 11:41:00,
2013-04-30 07:46:00,49.9,48.8,29.98,North,355,0.0,2.0,96,0.00,,,0.00,VWS V14.01,2013-04-30 11:46:00,
2013-04-30 07:51:00,50.1,49.0,29.98,North,355,0.0,2.0,96,0.00,,,0.00,VWS V14.01,2013-04-30 11:51:00,
2013-04-30 07:56:00,50.5,49.4,29.98,North,355,0.0,2.0,96,0.00,,,0.00,VWS V14.01,2013-04-30 11:56:00,
2013-04-30 08:01:00,51.3,50.5,29.99,North,355,0.0,2.0,97,0.00,,,0.00,VWS V14.01,2013-04-30 12:01:00,
2013-04-30 08:06:00,52.3,51.5,29.99,North,355,0.0,2.0,97,0.00,,,0.00,VWS V14.01,2013-04-30 12:06:00,
2013-04-30 08:11:00,53.2,52.4,29.99,North,355,0.0,2.0,97,0.00,,,0.00,VWS V14.01,2013-04-30 12:11:00,
2013-04-30 08:16:00,53.8,53.0,30.00,North,355,0.0,2.0,97,0.00,,,0.00,VWS V14.01,2013-04-30 12:16:00,
2013-04-30 08:21:00,54.4,53.6,30.00,North,355,0.0,2.0,97,0.00,,,0.00,VWS V14.01,2013-04-30 12:21:00,
2013-04-30 08:26:00,54.8,54.0,30.00,West,268,0.0,2.0,97,0.00,,,0.00,VWS V14.01,2013-04-30 12:26:00,
2013-04-30 08:32:00,55.1,54.0,30.00,West,269,0.0,2.0,96,0.00,,,0.00,VWS V14.01,2013-04-30 12:32:00,
2013-04-30 08:37:00,55.3,53.9,30.00,West,269,1.0,2.0,95,0.00,,,0.00,VWS V14.01,2013-04-30 12:37:00,
2013-04-30 08:42:00,55.4,53.7,30.00,West,269,0.0,2.0,94,0.00,,,0.00,VWS V14.01,2013-04-30 12:42:00,
2013-04-30 08:47:00,55.6,53.6,30.00,West,269,2.0,2.0,93,0.00,,,0.00,VWS V14.01,2013-04-30 12:47:00,
2013-04-30 08:52:00,55.7,53.4,30.00,West,269,0.0,2.0,92,0.00,,,0.00,VWS V14.01,2013-04-30 12:52:00,
2013-04-30 08:57:00,56.0,53.4,30.00,West,269,0.0,2.0,91,0.00,,,0.00,VWS V14.01,2013-04-30 12:57:00,
2013-04-30 09:02:00,56.3,53.4,30.00,West,269,2.0,2.0,90,0.00,,,0.00,VWS V14.01,2013-04-30 13:02:00,
2013-04-30 09:07:00,56.7,53.5,30.00,West,269,0.0,2.0,89,0.00,,,0.00,VWS V14.01,2013-04-30 13:07:00,
2013-04-30 09:12:00,57.0,53.8,30.00,West,265,0.0,2.0,89,0.00,,,0.00,VWS V14.01,2013-04-30 13:12:00,
2013-04-30 09:17:00,57.2,53.7,30.01,West,264,2.0,2.0,88,0.00,,,0.00,VWS V14.01,2013-04-30 13:17:00,
2013-04-30 09:22:00,57.5,54.0,30.01,West,265,2.0,2.0,88,0.00,,,0.00,VWS V14.01,2013-04-30 13:22:00,
2013-04-30 09:27:00,57.8,54.3,30.01,WSW,258,4.0,4.0,88,0.00,,,0.00,VWS V14.01,2013-04-30 13:27:00,
2013-04-30 09:32:00,58.3,54.1,30.00,WSW,258,0.0,2.0,86,0.00,,,0.00,VWS V14.01,2013-04-30 13:32:00,
2013-04-30 09:37:00,58.7,54.2,30.00,WSW,258,0.0,2.0,85,0.00,,,0.00,VWS V14.01,2013-04-30 13:37:00,
2013-04-30 09:42:00,59.3,54.2,30.00,WSW,256,1.0,2.0,83,0.00,,,0.00,VWS V14.01,2013-04-30 13:42:00,
2013-04-30 09:47:00,59.8,54.0,30.01,SW,229,2.0,2.0,81,0.00,,,0.00,VWS V14.01,2013-04-30 13:47:00,
2013-04-30 09:53:00,60.4,54.2,30.01,WSW,248,0.0,2.0,80,0.00,,,0.00,VWS V14.01,2013-04-30 13:53:00,
2013-04-30 09:58:00,60.9,54.0,30.01,WSW,248,0.0,2.0,78,0.00,,,0.00,VWS V14.01,2013-04-30 13:58:00,
2013-04-30 10:03:00,61.3,54.4,30.00,WSW,248,0.0,2.0,78,0.00,,,0.00,VWS V14.01,2013-04-30 14:03:00,
2013-04-30 10:08:00,62.0,54.4,30.00,NNE,22,1.0,2.0,76,0.00,,,0.00,VWS V14.01,2013-04-30 14:08:00,
2013-04-30 10:13:00,62.4,54.4,30.00,NNW,337,2.0,2.0,75,0.00,,,0.00,VWS V14.01,2013-04-30 14:13:00,
2013-04-30 10:18:00,62.9,54.5,30.00,WNW,291,0.0,2.0,74,0.00,,,0.00,VWS V14.01,2013-04-30 14:18:00,
2013-04-30 10:23:00,63.4,54.6,30.00,West,263,0.0,2.0,73,0.00,,,0.00,VWS V14.01,2013-04-30 14:23:00,
2013-04-30 10:28:00,63.9,54.7,30.00,West,263,0.0,2.0,72,0.00,,,0.00,VWS V14.01,2013-04-30 14:28:00,
2013-04-30 10:33:00,64.3,54.3,29.99,West,261,0.0,2.0,70,0.00,,,0.00,VWS V14.01,2013-04-30 14:33:00,
2013-04-30 10:38:00,64.7,53.5,29.99,NNW,335,0.0,2.0,67,0.00,,,0.00,VWS V14.01,2013-04-30 14:38:00,
2013-04-30 10:43:00,65.0,53.4,29.99,NNE,17,0.0,2.0,66,0.00,,,0.00,VWS V14.01,2013-04-30 14:43:00,
2013-04-30 10:48:00,65.6,54.4,29.99,North,5,0.0,2.0,67,0.00,,,0.00,VWS V14.01,2013-04-30 14:48:00,
2013-04-30 10:53:00,66.1,53.6,29.99,West,267,3.0,3.0,64,0.00,,,0.00,VWS V14.01,2013-04-30 14:53:00,
2013-04-30 10:59:00,66.3,54.2,29.99,ESE,111,0.0,2.0,65,0.00,,,0.00,VWS V14.01,2013-04-30 14:59:00,
2013-04-30 11:04:00,66.6,54.1,29.99,WNW,294,1.0,2.0,64,0.00,,,0.00,VWS V14.01,2013-04-30 15:04:00,
2013-04-30 11:09:00,66.8,53.8,29.99,West,261,1.0,2.0,63,0.00,,,0.00,VWS V14.01,2013-04-30 15:09:00,
2013-04-30 11:14:00,66.9,53.5,29.99,WSW,256,3.0,3.0,62,0.00,,,0.00,VWS V14.01,2013-04-30 15:14:00,
2013-04-30 11:19:00,67.1,54.1,29.98,WSW,256,2.0,2.0,63,0.00,,,0.00,VWS V14.01,2013-04-30 15:19:00,
2013-04-30 11:24:00,67.3,53.8,29.98,West,260,0.0,2.0,62,0.00,,,0.00,VWS V14.01,2013-04-30 15:24:00,
2013-04-30 11:29:00,67.6,53.7,29.98,WSW,252,0.0,2.0,61,0.00,,,0.00,VWS V14.01,2013-04-30 15:29:00,
2013-04-30 11:34:00,68.3,54.3,29.98,West,265,2.0,2.0,61,0.00,,,0.00,VWS V14.01,2013-04-30 15:34:00,
2013-04-30 11:39:00,68.6,53.2,29.98,ENE,72,4.0,4.0,58,0.00,,,0.00,VWS V14.01,2013-04-30 15:39:00,
2013-04-30 11:44:00,68.9,54.5,29.98,NNE,25,0.0,2.0,60,0.00,,,0.00,VWS V14.01,2013-04-30 15:44:00,
2013-04-30 11:49:00,69.6,54.2,29.98,WNW,296,0.0,2.0,58,0.00,,,0.00,VWS V14.01,2013-04-30 15:49:00,
2013-04-30 11:54:00,70.3,53.9,29.98,West,267,0.0,2.0,56,0.00,,,0.00,VWS V14.01,2013-04-30 15:54:00,
2013-04-30 11:59:00,70.8,53.8,29.97,NW,313,0.0,2.0,55,0.00,,,0.00,VWS V14.01,2013-04-30 15:59:00,
2013-04-30 12:04:00,71.3,53.3,29.97,WNW,296,5.0,5.0,53,0.00,,,0.00,VWS V14.01,2013-04-30 16:04:00,
2013-04-30 12:09:00,71.6,53.1,29.97,WSW,256,2.0,2.0,52,0.00,,,0.00,VWS V14.01,2013-04-30 16:09:00,
2013-04-30 12:15:00,72.3,53.2,29.97,WNW,284,2.0,2.0,51,0.00,,,0.00,VWS V14.01,2013-04-30 16:15:00,
2013-04-30 12:20:00,73.0,52.7,29.97,South,184,1.0,2.0,49,0.00,,,0.00,VWS V14.01,2013-04-30 16:20:00,
2013-04-30 12:25:00,73.5,52.1,29.97,West,266,1.0,2.0,47,0.00,,,0.00,VWS V14.01,2013-04-30 16:25:00,
2013-04-30 12:30:00,74.0,53.1,29.96,NNW,337,2.0,2.0,48,0.00,,,0.00,VWS V14.01,2013-04-30 16:30:00,
2013-04-30 12:35:00,74.4,52.9,29.96,West,263,1.0,2.0,47,0.00,,,0.00,VWS V14.01,2013-04-30 16:35:00,
2013-04-30 12:40:00,74.9,52.8,29.96,WNW,295,1.0,2.0,46,0.00,,,0.00,VWS V14.01,2013-04-30 16:40:00,
2013-04-30 12:45:00,75.1,52.9,29.96,North,360,0.0,2.0,46,0.00,,,0.00,VWS V14.01,2013-04-30 16:45:00,
2013-04-30 12:50:00,76.1,52.0,29.96,WNW,287,4.0,4.0,43,0.00,,,0.00,VWS V14.01,2013-04-30 16:50:00,
2013-04-30 12:55:00,76.0,52.5,29.96,NNW,345,0.0,2.0,44,0.00,,,0.00,VWS V14.01,2013-04-30 16:55:00,
2013-04-30 13:00:00,75.8,52.4,29.95,NW,311,2.0,2.0,44,0.00,,,0.00,VWS V14.01,2013-04-30 17:00:00,
2013-04-30 13:05:00,75.8,51.1,29.95,ENE,72,0.0,2.0,42,0.00,,,0.00,VWS V14.01,2013-04-30 17:05:00,
2013-04-30 13:10:00,75.1,51.1,29.95,NW,324,2.0,2.0,43,0.00,,,0.00,VWS V14.01,2013-04-30 17:10:00,
2013-04-30 13:15:00,75.6,50.9,29.95,North,351,0.0,2.0,42,0.00,,,0.00,VWS V14.01,2013-04-30 17:15:00,
2013-04-30 13:20:00,76.5,51.7,29.95,NE,41,0.0,2.0,42,0.00,,,0.00,VWS V14.01,2013-04-30 17:20:00,
2013-04-30 13:25:00,77.4,52.5,29.95,NW,313,0.0,2.0,42,0.00,,,0.00,VWS V14.01,2013-04-30 17:25:00,
2013-04-30 13:31:00,78.3,52.0,29.95,NW,309,2.0,2.0,40,0.00,,,0.00,VWS V14.01,2013-04-30 17:31:00,
2013-04-30 13:36:00,78.3,51.3,29.95,North,5,1.0,2.0,39,0.00,,,0.00,VWS V14.01,2013-04-30 17:36:00,
2013-04-30 13:41:00,77.6,51.4,29.95,West,265,5.0,5.0,40,0.00,,,0.00,VWS V14.01,2013-04-30 17:41:00,
2013-04-30 13:46:00,78.1,51.2,29.94,NW,317,1.0,2.0,39,0.00,,,0.00,VWS V14.01,2013-04-30 17:46:00,
2013-04-30 13:51:00,79.0,50.5,29.94,NW,312,1.0,2.0,37,0.00,,,0.00,VWS V14.01,2013-04-30 17:51:00,
2013-04-30 13:56:00,79.4,50.9,29.94,SE,143,1.0,2.0,37,0.00,,,0.00,VWS V14.01,2013-04-30 17:56:00,
2013-04-30 14:01:00,78.8,51.8,29.93,SE,144,0.0,2.0,39,0.00,,,0.00,VWS V14.01,2013-04-30 18:01:00,
2013-04-30 14:06:00,78.6,49.4,29.93,South,184,0.0,2.0,36,0.00,,,0.00,VWS V14.01,2013-04-30 18:06:00,
2013-04-30 14:11:00,78.6,50.9,29.93,WNW,298,2.0,2.0,38,0.00,,,0.00,VWS V14.01,2013-04-30 18:11:00,
2013-04-30 14:16:00,78.3,51.3,29.93,NE,53,0.0,2.0,39,0.00,,,0.00,VWS V14.01,2013-04-30 18:16:00,
2013-04-30 14:21:00,78.5,50.1,29.93,North,350,5.0,5.0,37,0.00,,,0.00,VWS V14.01,2013-04-30 18:21:00,
2013-04-30 14:26:00,79.6,49.6,29.93,WSW,244,0.0,2.0,35,0.00,,,0.00,VWS V14.01,2013-04-30 18:26:00,
2013-04-30 14:31:00,79.9,50.6,29.92,WNW,291,0.0,2.0,36,0.00,,,0.00,VWS V14.01,2013-04-30 18:31:00,
2013-04-30 14:36:00,80.3,50.9,29.92,East,101,1.0,2.0,36,0.00,,,0.00,VWS V14.01,2013-04-30 18:36:00,
2013-04-30 14:41:00,79.8,52.0,29.92,WSW,255,6.0,6.0,38,0.00,,,0.00,VWS V14.01,2013-04-30 18:41:00,
2013-04-30 14:47:00,79.2,50.7,29.92,SSW,209,0.0,2.0,37,0.00,,,0.00,VWS V14.01,2013-04-30 18:47:00,
2013-04-30 14:52:00,79.4,50.2,29.92,NW,320,0.0,2.0,36,0.00,,,0.00,VWS V14.01,2013-04-30 18:52:00,
2013-04-30 14:57:00,80.1,51.5,29.92,WNW,296,5.0,5.0,37,0.00,,,0.00,VWS V14.01,2013-04-30 18:57:00,
2013-04-30 15:02:00,80.3,50.9,29.91,WNW,297,0.0,2.0,36,0.00,,,0.00,VWS V14.01,2013-04-30 19:02:00,
2013-04-30 15:07:00,79.9,49.8,29.91,WNW,300,3.0,3.0,35,0.00,,,0.00,VWS V14.01,2013-04-30 19:07:00,
2013-04-30 15:12:00,80.3,50.2,29.91,WSW,258,2.0,2.0,35,0.00,,,0.00,VWS V14.01,2013-04-30 19:12:00,
2013-04-30 15:17:00,81.2,51.7,29.91,NW,313,0.0,2.0,36,0.00,,,0.00,VWS V14.01,2013-04-30 19:17:00,
2013-04-30 15:22:00,82.6,49.8,29.91,WNW,292,5.0,5.0,32,0.00,,,0.00,VWS V14.01,2013-04-30 19:22:00,
2013-04-30 15:27:00,82.0,51.7,29.91,NE,46,3.0,3.0,35,0.00,,,0.00,VWS V14.01,2013-04-30 19:27:00,
2013-04-30 15:32:00,81.6,49.7,29.90,NW,325,3.0,3.0,33,0.00,,,0.00,VWS V14.01,2013-04-30 19:32:00,
2013-04-30 15:37:00,81.8,49.1,29.90,NW,326,0.0,2.0,32,0.00,,,0.00,VWS V14.01,2013-04-30 19:37:00,
2013-04-30 15:42:00,81.1,48.5,29.90,WNW,301,1.0,2.0,32,0.00,,,0.00,VWS V14.01,2013-04-30 19:42:00,
2013-04-30 15:48:00,80.7,49.0,29.90,NNW,335,2.0,2.0,33,0.00,,,0.00,VWS V14.01,2013-04-30 19:48:00,
2013-04-30 15:53:00,81.1,48.5,29.90,ENE,61,0.0,2.0,32,0.00,,,0.00,VWS V14.01,2013-04-30 19:53:00,
2013-04-30 15:58:00,81.4,48.7,29.90,NNE,15,1.0,2.0,32,0.00,,,0.00,VWS V14.01,2013-04-30 19:58:00,
2013-04-30 16:03:00,81.4,49.6,29.90,SE,144,0.0,2.0,33,0.00,,,0.00,VWS V14.01,2013-04-30 20:03:00,
2013-04-30 16:08:00,80.7,48.1,29.90,SE,135,0.0,2.0,32,0.00,,,0.00,VWS V14.01,2013-04-30 20:08:00,
2013-04-30 16:13:00,79.2,46.8,29.90,ENE,62,0.0,2.0,32,0.00,,,0.00,VWS V14.01,2013-04-30 20:13:00,
2013-04-30 16:18:00,78.3,48.4,29.91,ENE,62,0.0,2.0,35,0.00,,,0.00,VWS V14.01,2013-04-30 20:18:00,
2013-04-30 16:23:00,77.7,47.9,29.91,ENE,62,0.0,2.0,35,0.00,,,0.00,VWS V14.01,2013-04-30 20:23:00,
2013-04-30 16:28:00,77.6,47.8,29.91,West,272,0.0,2.0,35,0.00,,,0.00,VWS V14.01,2013-04-30 20:28:00,
2013-04-30 16:34:00,77.6,48.6,29.91,West,272,1.0,2.0,36,0.00,,,0.00,VWS V14.01,2013-04-30 20:34:00,
2013-04-30 16:39:00,77.0,52.8,29.91,West,272,0.0,2.0,43,0.00,,,0.00,VWS V14.01,2013-04-30 20:39:00,
2013-04-30 16:44:00,77.2,50.3,29.91,West,272,2.0,2.0,39,0.00,,,0.00,VWS V14.01,2013-04-30 20:44:00,
2013-04-30 16:49:00,78.1,49.0,29.92,West,267,1.0,2.0,36,0.00,,,0.00,VWS V14.01,2013-04-30 20:49:00,
2013-04-30 16:54:00,78.8,48.9,29.92,WNW,288,2.0,2.0,35,0.00,,,0.00,VWS V14.01,2013-04-30 20:54:00,
2013-04-30 16:59:00,79.2,49.2,29.92,West,265,0.0,2.0,35,0.00,,,0.00,VWS V14.01,2013-04-30 20:59:00,
2013-04-30 17:04:00,79.6,48.0,29.91,West,263,2.0,2.0,33,0.00,,,0.00,VWS V14.01,2013-04-30 21:04:00,
2013-04-30 17:09:00,79.8,49.7,29.91,West,269,2.0,2.0,35,0.00,,,0.00,VWS V14.01,2013-04-30 21:09:00,
2013-04-30 17:14:00,79.4,47.8,29.92,WNW,286,0.0,2.0,33,0.00,,,0.00,VWS V14.01,2013-04-30 21:14:00,
2013-04-30 17:19:00,78.5,47.8,29.92,NNW,333,1.0,2.0,34,0.00,,,0.00,VWS V14.01,2013-04-30 21:19:00,
2013-04-30 17:24:00,78.3,49.2,29.92,NNW,333,1.0,2.0,36,0.00,,,0.00,VWS V14.01,2013-04-30 21:24:00,
2013-04-30 17:29:00,79.2,47.7,29.92,NNW,333,1.0,2.0,33,0.00,,,0.00,VWS V14.01,2013-04-30 21:29:00,
2013-04-30 17:34:00,79.8,47.3,29.92,WNW,298,1.0,2.0,32,0.00,,,0.00,VWS V14.01,2013-04-30 21:34:00,
2013-04-30 17:39:00,79.6,48.0,29.92,WNW,298,0.0,2.0,33,0.00,,,0.00,VWS V14.01,2013-04-30 21:39:00,
2013-04-30 17:44:00,79.0,48.3,29.92,WNW,298,0.0,2.0,34,0.00,,,0.00,VWS V14.01,2013-04-30 21:44:00,
2013-04-30 17:49:00,78.8,47.3,29.92,WNW,300,0.0,2.0,33,0.00,,,0.00,VWS V14.01,2013-04-30 21:49:00,
2013-04-30 17:55:00,79.2,48.4,29.92,WNW,300,0.0,2.0,34,0.00,,,0.00,VWS V14.01,2013-04-30 21:55:00,
2013-04-30 18:00:00,79.2,47.7,29.93,WNW,302,3.0,3.0,33,0.00,,,0.00,VWS V14.01,2013-04-30 22:00:00,
2013-04-30 18:05:00,79.0,50.5,29.93,West,267,0.0,2.0,37,0.00,,,0.00,VWS V14.01,2013-04-30 22:05:00,
2013-04-30 18:10:00,79.0,49.0,29.93,West,269,3.0,3.0,35,0.00,,,0.00,VWS V14.01,2013-04-30 22:10:00,
2013-04-30 18:15:00,79.0,48.3,29.93,WSW,250,2.0,2.0,34,0.00,,,0.00,VWS V14.01,2013-04-30 22:15:00,
2013-04-30 18:20:00,78.6,46.3,29.93,West,263,3.0,3.0,32,0.00,,,0.00,VWS V14.01,2013-04-30 22:20:00,
2013-04-30 18:25:00,78.6,47.9,29.93,WNW,289,2.0,2.0,34,0.00,,,0.00,VWS V14.01,2013-04-30 22:25:00,
2013-04-30 18:30:00,78.5,47.8,29.93,West,281,3.0,3.0,34,0.00,,,0.00,VWS V14.01,2013-04-30 22:30:00,
2013-04-30 18:35:00,77.9,48.1,29.93,West,265,2.0,2.0,35,0.00,,,0.00,VWS V14.01,2013-04-30 22:35:00,
2013-04-30 18:40:00,77.4,48.4,29.93,West,265,1.0,2.0,36,0.00,,,0.00,VWS V14.01,2013-04-30 22:40:00,
2013-04-30 18:45:00,77.0,48.0,29.94,West,265,1.0,2.0,36,0.00,,,0.00,VWS V14.01,2013-04-30 22:45:00,
2013-04-30 18:50:00,77.0,48.0,29.94,West,265,0.0,2.0,36,0.00,,,0.00,VWS V14.01,2013-04-30 22:50:00,
2013-04-30 18:55:00,77.0,48.8,29.94,West,265,0.0,2.0,37,0.00,,,0.00,VWS V14.01,2013-04-30 22:55:00,
2013-04-30 19:00:00,77.2,48.9,29.94,West,265,2.0,2.0,37,0.00,,,0.00,VWS V14.01,2013-04-30 23:00:00,
2013-04-30 19:05:00,76.8,49.3,29.94,West,265,1.0,2.0,38,0.00,,,0.00,VWS V14.01,2013-04-30 23:05:00,
2013-04-30 19:10:00,76.7,51.2,29.94,West,265,2.0,2.0,41,0.00,,,0.00,VWS V14.01,2013-04-30 23:10:00,
2013-04-30 19:15:00,76.5,50.4,29.93,NW,310,1.0,2.0,40,0.00,,,0.00,VWS V14.01,2013-04-30 23:15:00,
2013-04-30 19:20:00,76.1,50.0,29.93,West,269,0.0,2.0,40,0.00,,,0.00,VWS V14.01,2013-04-30 23:20:00,
2013-04-30 19:25:00,75.8,49.8,29.93,West,271,0.0,2.0,40,0.00,,,0.00,VWS V14.01,2013-04-30 23:25:00,
2013-04-30 19:30:00,75.6,50.9,29.94,West,271,0.0,2.0,42,0.00,,,0.00,VWS V14.01,2013-04-30 23:30:00,
2013-04-30 19:35:00,75.4,49.4,29.94,West,271,1.0,2.0,40,0.00,,,0.00,VWS V14.01,2013-04-30 23:35:00,
2013-04-30 19:41:00,75.1,49.2,29.94,West,260,0.0,2.0,40,0.00,,,0.00,VWS V14.01,2013-04-30 23:41:00,
2013-04-30 19:46:00,74.7,49.5,29.95,West,260,0.0,2.0,41,0.00,,,0.00,VWS V14.01,2013-04-30 23:46:00,
2013-04-30 19:51:00,74.4,49.8,29.95,West,260,1.0,2.0,42,0.00,,,0.00,VWS V14.01,2013-04-30 23:51:00,
2013-04-30 19:56:00,74.0,50.1,29.95,West,260,1.0,2.0,43,0.00,,,0.00,VWS V14.01,2013-04-30 23:56:00,
2013-04-30 20:01:00,73.5,50.3,29.96,West,260,0.0,2.0,44,0.00,,,0.00,VWS V14.01,2013-05-01 00:01:00,
2013-04-30 20:06:00,73.2,50.6,29.96,West,260,0.0,2.0,45,0.00,,,0.00,VWS V14.01,2013-05-01 00:06:00,
2013-04-30 20:11:00,72.8,53.1,29.96,WNW,288,3.0,3.0,50,0.00,,,0.00,VWS V14.01,2013-05-01 00:11:00,
2013-04-30 20:16:00,72.3,52.1,29.95,WSW,258,0.0,2.0,49,0.00,,,0.00,VWS V14.01,2013-05-01 00:16:00,
2013-04-30 20:21:00,72.0,52.9,29.95,WSW,258,0.0,2.0,51,0.00,,,0.00,VWS V14.01,2013-05-01 00:21:00,
2013-04-30 20:26:00,71.5,51.9,29.95,WSW,257,0.0,2.0,50,0.00,,,0.00,VWS V14.01,2013-05-01 00:26:00,
2013-04-30 20:31:00,71.1,51.5,29.96,WSW,257,0.0,2.0,50,0.00,,,0.00,VWS V14.01,2013-05-01 00:31:00,
2013-04-30 20:36:00,70.6,53.2,29.96,WSW,257,0.0,2.0,54,0.00,,,0.00,VWS V14.01,2013-05-01 00:36:00,
2013-04-30 20:41:00,70.3,52.9,29.96,WSW,257,0.0,2.0,54,0.00,,,0.00,VWS V14.01,2013-05-01 00:41:00,
2013-04-30 20:46:00,69.3,52.5,29.97,WSW,257,0.0,2.0,55,0.00,,,0.00,VWS V14.01,2013-05-01 00:46:00,
2013-04-30 20:51:00,68.6,52.3,29.97,WSW,257,0.0,2.0,56,0.00,,,0.00,VWS V14.01,2013-05-01 00:51:00,
2013-04-30 20:56:00,68.1,52.8,29.97,WSW,257,0.0,2.0,58,0.00,,,0.00,VWS V14.01,2013-05-01 00:56:00,
2013-04-30 21:01:00,67.8,53.0,29.97,WSW,257,0.0,2.0,59,0.00,,,0.00,VWS V14.01,2013-05-01 01:01:00,
2013-04-30 21:06:00,67.3,53.0,29.97,WSW,257,0.0,2.0,60,0.00,,,0.00,VWS V14.01,2013-05-01 01:06:00,
2013-04-30 21:11:00,66.8,52.5,29.97,WSW,257,0.0,2.0,60,0.00,,,0.00,VWS V14.01,2013-05-01 01:11:00,
2013-04-30 21:17:00,66.6,53.2,29.97,WSW,257,0.0,2.0,62,0.00,,,0.00,VWS V14.01,2013-05-01 01:17:00,
2013-04-30 21:22:00,66.3,52.9,29.97,WSW,257,0.0,2.0,62,0.00,,,0.00,VWS V14.01,2013-05-01 01:22:00,
2013-04-30 21:27:00,66.1,52.7,29.97,WSW,257,0.0,2.0,62,0.00,,,0.00,VWS V14.01,2013-05-01 01:27:00,
2013-04-30 21:32:00,66.1,53.6,29.99,WSW,257,0.0,2.0,64,0.00,,,0.00,VWS V14.01,2013-05-01 01:32:00,
2013-04-30 21:37:00,65.8,53.7,29.99,WSW,257,0.0,2.0,65,0.00,,,0.00,VWS V14.01,2013-05-01 01:37:00,
2013-04-30 21:42:00,65.6,53.5,29.99,WSW,257,0.0,2.0,65,0.00,,,0.00,VWS V14.01,2013-05-01 01:42:00,
2013-04-30 21:47:00,65.3,53.2,29.99,WSW,257,0.0,2.0,65,0.00,,,0.00,VWS V14.01,2013-05-01 01:47:00,
2013-04-30 21:52:00,64.8,52.8,29.99,WSW,257,0.0,2.0,65,0.00,,,0.00,VWS V14.01,2013-05-01 01:52:00,
2013-04-30 21:57:00,64.5,52.5,29.99,WSW,257,0.0,2.0,65,0.00,,,0.00,VWS V14.01,2013-05-01 01:57:00,
2013-04-30 22:02:00,64.5,51.6,30.00,WSW,257,0.0,2.0,63,0.00,,,0.00,VWS V14.01,2013-05-01 02:02:00,
2013-04-30 22:07:00,64.8,51.5,30.00,WSW,257,0.0,2.0,62,0.00,,,0.00,VWS V14.01,2013-05-01 02:07:00,
2013-04-30 22:12:00,65.6,51.4,30.00,West,264,1.0,2.0,60,0.00,,,0.00,VWS V14.01,2013-05-01 02:12:00,
2013-04-30 22:17:00,66.4,51.7,29.99,West,277,1.0,2.0,59,0.00,,,0.00,VWS V14.01,2013-05-01 02:17:00,
2013-04-30 22:22:00,66.6,52.3,29.99,WNW,284,0.0,2.0,60,0.00,,,0.00,VWS V14.01,2013-05-01 02:22:00,
2013-04-30 22:27:00,66.4,52.1,29.99,SW,232,3.0,3.0,60,0.00,,,0.00,VWS V14.01,2013-05-01 02:27:00,
2013-04-30 22:32:00,66.3,52.5,30.00,WNW,297,2.0,2.0,61,0.00,,,0.00,VWS V14.01,2013-05-01 02:32:00,
2013-04-30 22:37:00,66.3,52.5,30.00,WNW,297,0.0,2.0,61,0.00,,,0.00,VWS V14.01,2013-05-01 02:37:00,
2013-04-30 22:42:00,66.1,52.7,30.00,West,280,2.0,2.0,62,0.00,,,0.00,VWS V14.01,2013-05-01 02:42:00,
2013-04-30 22:47:00,66.0,52.6,30.01,NW,307,0.0,2.0,62,0.00,,,0.00,VWS V14.01,2013-05-01 02:47:00,
2013-04-30 22:52:00,65.8,52.4,30.01,WNW,288,1.0,2.0,62,0.00,,,0.00,VWS V14.01,2013-05-01 02:52:00,
2013-04-30 22:58:00,65.8,52.9,30.01,WSW,240,2.0,2.0,63,0.00,,,0.00,VWS V14.01,2013-05-01 02:58:00,
2013-04-30 23:03:00,65.6,52.7,30.01,WNW,286,0.0,2.0,63,0.00,,,0.00,VWS V14.01,2013-05-01 03:03:00,
2013-04-30 23:08:00,65.3,53.2,30.01,NW,315,1.0,2.0,65,0.00,,,0.00,VWS V14.01,2013-05-01 03:08:00,
2013-04-30 23:13:00,65.0,52.5,30.01,West,266,4.0,4.0,64,0.00,,,0.00,VWS V14.01,2013-05-01 03:13:00,
2013-04-30 23:18:00,64.8,52.8,30.00,West,260,1.0,2.0,65,0.00,,,0.00,VWS V14.01,2013-05-01 03:18:00,
2013-04-30 23:23:00,64.7,53.1,30.00,NNW,336,2.0,2.0,66,0.00,,,0.00,VWS V14.01,2013-05-01 03:23:00,
2013-04-30 23:28:00,64.5,52.9,30.00,WSW,256,0.0,2.0,66,0.00,,,0.00,VWS V14.01,2013-05-01 03:28:00,
2013-04-30 23:33:00,64.3,53.1,30.00,West,270,5.0,5.0,67,0.00,,,0.00,VWS V14.01,2013-05-01 03:33:00,
2013-04-30 23:38:00,64.2,53.0,30.00,West,261,0.0,2.0,67,0.00,,,0.00,VWS V14.01,2013-05-01 03:38:00,
2013-04-30 23:43:00,64.0,52.8,30.00,West,266,1.0,2.0,67,0.00,,,0.00,VWS V14.01,2013-05-01 03:43:00,
2013-04-30 23:48:00,63.9,53.1,30.01,West,266,0.0,2.0,68,0.00,,,0.00,VWS V14.01,2013-05-01 03:48:00,
2013-04-30 23:53:00,63.9,53.1,30.01,West,266,0.0,2.0,68,0.00,,,0.00,VWS V14.01,2013-05-01 03:53:00,
2013-04-30 23:58:00,63.7,53.0,30.01,WSW,255,2.0,2.0,68,0.00,,,0.00,VWS V14.01,2013-05-01 03:58:00,